Location: Plainartige
(45.6866°N, 1.7993°E)
Time: 04:51:31
(UTC+00:00)

Vanguard 1 - Pass Details

Date: 26 May 2022
Orbit: 649 x 3833 km, 34.2° (Epoch: 06 July)

Event Time Altitude Azimuth Distance (km) Brightness Sun altitude
Exits shadow 02:46:08 - 247° (WSW) 5,360 13.3 -12.2°
Reaches altitude 10° 02:46:47 10° 247° (WSW) 5,240 13.2 -12.1°
Maximum altitude 03:03:27 59° 173° (S) 3,851 12.8 -10.1°
Drops below altitude 10° 03:26:12 10° 102° (ESE) 6,869 14.9 -7.2°
Sets 03:31:23 0° 100° (E) 7,749 15.3 -6.5°
